Time,TemperatureF,DewpointF,PressureIn,WindDirection,WindDirectionDegrees,WindSpeedMPH,WindSpeedGustMPH,Humidity,HourlyPrecipIn,Conditions,Clouds,dailyrainin,SoftwareType,DateUTC
2013-01-21 00:03:00,44.0,12.0,30.18,North,4,9.0,12.0,27,-99.99,,,-99.99,,2013-01-21 07:03:00,
2013-01-21 00:13:00,43.0,12.0,30.18,NNE,16,7.0,8.0,28,-99.99,,,-99.99,,2013-01-21 07:13:00,
2013-01-21 00:22:00,43.0,12.0,30.18,NNE,15,7.0,9.0,28,-99.99,,,-99.99,,2013-01-21 07:22:00,
2013-01-21 00:33:00,42.0,12.0,30.18,North,357,7.0,9.0,28,-99.99,,,-99.99,,2013-01-21 07:33:00,
2013-01-21 00:42:00,42.0,12.0,30.18,North,352,8.0,10.0,28,-99.99,,,-99.99,,2013-01-21 07:42:00,
2013-01-21 00:52:00,42.0,11.0,30.18,NNW,348,9.0,10.0,27,-99.99,,,-99.99,,2013-01-21 07:52:00,
2013-01-21 01:03:00,42.0,10.0,30.18,North,350,9.0,12.0,27,-99.99,,,-99.99,,2013-01-21 08:03:00,
2013-01-21 01:13:00,42.0,11.0,30.18,North,352,9.0,12.0,27,-99.99,,,-99.99,,2013-01-21 08:13:00,
2013-01-21 01:23:00,42.0,11.0,30.17,North,352,8.0,12.0,27,-99.99,,,-99.99,,2013-01-21 08:23:00,
2013-01-21 01:32:00,42.0,11.0,30.17,North,353,8.0,12.0,27,-99.99,,,-99.99,,2013-01-21 08:32:00,
2013-01-21 01:42:00,42.0,10.0,30.18,NNW,348,9.0,12.0,27,-99.99,,,-99.99,,2013-01-21 08:42:00,
2013-01-21 01:53:00,41.0,11.0,30.18,NNW,345,7.0,9.0,28,-99.99,,,-99.99,,2013-01-21 08:53:00,
2013-01-21 02:02:00,40.0,11.0,30.18,NNW,340,7.0,9.0,29,-99.99,,,-99.99,,2013-01-21 09:02:00,
2013-01-21 02:12:00,40.0,10.0,30.18,NNW,343,8.0,9.0,29,-99.99,,,-99.99,,2013-01-21 09:12:00,
2013-01-21 02:22:00,39.0,10.0,30.18,NNW,343,9.0,10.0,30,-99.99,,,-99.99,,2013-01-21 09:22:00,
2013-01-21 02:33:00,40.0,10.0,30.18,NNW,346,9.0,12.0,29,-99.99,,,-99.99,,2013-01-21 09:33:00,
2013-01-21 02:42:00,40.0,10.0,30.18,North,3,8.0,10.0,28,-99.99,,,-99.99,,2013-01-21 09:42:00,
2013-01-21 02:52:00,40.0,10.0,30.18,North,350,7.0,9.0,28,-99.99,,,-99.99,,2013-01-21 09:52:00,
2013-01-21 03:02:00,40.0,10.0,30.18,NNW,348,8.0,10.0,28,-99.99,,,-99.99,,2013-01-21 10:02:00,
2013-01-21 03:12:00,40.0,10.0,30.19,North,351,7.0,8.0,28,-99.99,,,-99.99,,2013-01-21 10:12:00,
2013-01-21 03:22:00,40.0,9.0,30.19,NNW,344,7.0,9.0,28,-99.99,,,-99.99,,2013-01-21 10:22:00,
2013-01-21 03:32:00,40.0,9.0,30.19,North,354,8.0,10.0,28,-99.99,,,-99.99,,2013-01-21 10:32:00,
2013-01-21 03:43:00,40.0,10.0,30.19,NE,37,6.0,9.0,28,-99.99,,,-99.99,,2013-01-21 10:43:00,
2013-01-21 03:52:00,39.0,10.0,30.18,North,6,8.0,12.0,29,-99.99,,,-99.99,,2013-01-21 10:52:00,
2013-01-21 04:02:00,43.0,10.0,30.18,NNE,13,15.0,18.0,25,-99.99,,,-99.99,,2013-01-21 11:02:00,
2013-01-21 04:13:00,44.0,8.0,30.18,NNE,19,13.0,18.0,23,-99.99,,,-99.99,,2013-01-21 11:13:00,
2013-01-21 04:23:00,44.0,9.0,30.18,NNE,19,13.0,18.0,24,-99.99,,,-99.99,,2013-01-21 11:23:00,
2013-01-21 04:33:00,43.0,8.0,30.18,NNE,25,14.0,18.0,23,-99.99,,,-99.99,,2013-01-21 11:33:00,
2013-01-21 04:42:00,43.0,9.0,30.18,NNE,20,10.0,14.0,24,-99.99,,,-99.99,,2013-01-21 11:42:00,
2013-01-21 04:53:00,43.0,9.0,30.18,NNE,16,10.0,14.0,25,-99.99,,,-99.99,,2013-01-21 11:53:00,
2013-01-21 05:02:00,41.0,8.0,30.18,NNE,13,9.0,12.0,25,-99.99,,,-99.99,,2013-01-21 12:02:00,
2013-01-21 05:12:00,41.0,8.0,30.18,North,6,8.0,10.0,25,-99.99,,,-99.99,,2013-01-21 12:12:00,
2013-01-21 05:22:00,39.0,9.0,30.19,North,350,7.0,9.0,28,-99.99,,,-99.99,,2013-01-21 12:22:00,
2013-01-21 05:32:00,38.0,9.0,30.19,NNW,340,8.0,9.0,29,-99.99,,,-99.99,,2013-01-21 12:32:00,
2013-01-21 05:42:00,37.0,9.0,30.19,NNW,341,8.0,9.0,31,-99.99,,,-99.99,,2013-01-21 12:42:00,
2013-01-21 05:52:00,37.0,8.0,30.19,NNW,340,7.0,8.0,30,-99.99,,,-99.99,,2013-01-21 12:52:00,
2013-01-21 06:02:00,37.0,8.0,30.20,NNW,337,7.0,8.0,30,-99.99,,,-99.99,,2013-01-21 13:02:00,
2013-01-21 06:13:00,37.0,9.0,30.20,NNW,343,7.0,9.0,30,-99.99,,,-99.99,,2013-01-21 13:13:00,
2013-01-21 06:23:00,36.0,8.0,30.20,NNW,342,6.0,8.0,30,-99.99,,,-99.99,,2013-01-21 13:23:00,
2013-01-21 06:33:00,36.0,9.0,30.21,NNW,342,7.0,8.0,32,-99.99,,,-99.99,,2013-01-21 13:33:00,
2013-01-21 06:43:00,35.0,8.0,30.21,NNW,332,5.0,5.0,32,-99.99,,,-99.99,,2013-01-21 13:43:00,
2013-01-21 06:53:00,34.0,9.0,30.21,NNW,339,5.0,5.0,34,-99.99,,,-99.99,,2013-01-21 13:53:00,
2013-01-21 07:03:00,34.0,8.0,30.22,North,1,6.0,8.0,33,-99.99,,,-99.99,,2013-01-21 14:03:00,
2013-01-21 07:12:00,36.0,8.0,30.22,North,4,7.0,8.0,30,-99.99,,,-99.99,,2013-01-21 14:12:00,
2013-01-21 07:23:00,36.0,9.0,30.22,NNW,339,5.0,5.0,31,-99.99,,,-99.99,,2013-01-21 14:23:00,
2013-01-21 07:32:00,36.0,8.0,30.23,NNW,344,5.0,6.0,30,-99.99,,,-99.99,,2013-01-21 14:32:00,
2013-01-21 07:43:00,36.0,8.0,30.23,NNW,346,5.0,7.0,31,-99.99,,,-99.99,,2013-01-21 14:43:00,
2013-01-21 07:53:00,36.0,8.0,30.23,North,1,5.0,6.0,31,-99.99,,,-99.99,,2013-01-21 14:53:00,
2013-01-21 08:03:00,37.0,8.0,30.24,NNW,348,3.0,5.0,30,-99.99,,,-99.99,,2013-01-21 15:03:00,
2013-01-21 08:13:00,37.0,9.0,30.24,North,353,6.0,8.0,30,-99.99,,,-99.99,,2013-01-21 15:13:00,
2013-01-21 08:23:00,38.0,8.0,30.24,North,0,14.0,16.0,28,-99.99,,,-99.99,,2013-01-21 15:23:00,
2013-01-21 08:33:00,40.0,8.0,30.24,North,356,12.0,14.0,27,-99.99,,,-99.99,,2013-01-21 15:33:00,
2013-01-21 08:43:00,40.0,8.0,30.24,North,352,8.0,12.0,26,-99.99,,,-99.99,,2013-01-21 15:43:00,
2013-01-21 08:53:00,41.0,8.0,30.24,North,1,12.0,15.0,25,-99.99,,,-99.99,,2013-01-21 15:53:00,
2013-01-21 09:03:00,42.0,8.0,30.25,North,359,13.0,16.0,24,-99.99,,,-99.99,,2013-01-21 16:03:00,
2013-01-21 09:12:00,43.0,8.0,30.25,North,1,12.0,15.0,24,-99.99,,,-99.99,,2013-01-21 16:12:00,
2013-01-21 09:23:00,43.0,8.0,30.26,North,360,9.0,13.0,23,-99.99,,,-99.99,,2013-01-21 16:23:00,
2013-01-21 09:33:00,44.0,9.0,30.26,North,3,9.0,13.0,23,-99.99,,,-99.99,,2013-01-21 16:33:00,
2013-01-21 09:43:00,45.0,9.0,30.27,NNE,14,10.0,15.0,23,-99.99,,,-99.99,,2013-01-21 16:43:00,
2013-01-21 09:53:00,45.0,9.0,30.27,North,8,9.0,12.0,23,-99.99,,,-99.99,,2013-01-21 16:53:00,
2013-01-21 10:02:00,45.0,9.0,30.27,North,359,8.0,12.0,22,-99.99,,,-99.99,,2013-01-21 17:02:00,
2013-01-21 10:12:00,46.0,9.0,30.27,North,359,8.0,9.0,22,-99.99,,,-99.99,,2013-01-21 17:12:00,
2013-01-21 10:23:00,47.0,9.0,30.27,North,5,8.0,13.0,21,-99.99,,,-99.99,,2013-01-21 17:23:00,
2013-01-21 10:33:00,47.0,8.0,30.27,NNE,14,9.0,12.0,20,-99.99,,,-99.99,,2013-01-21 17:33:00,
2013-01-21 10:43:00,48.0,9.0,30.27,North,7,9.0,12.0,20,-99.99,,,-99.99,,2013-01-21 17:43:00,
2013-01-21 10:53:00,49.0,9.0,30.27,North,8,9.0,12.0,19,-99.99,,,-99.99,,2013-01-21 17:53:00,
2013-01-21 11:03:00,49.0,8.0,30.26,North,0,9.0,13.0,19,-99.99,,,-99.99,,2013-01-21 18:03:00,
2013-01-21 11:12:00,50.0,8.0,30.26,NNE,16,8.0,13.0,18,-99.99,,,-99.99,,2013-01-21 18:12:00,
2013-01-21 11:22:00,51.0,9.0,30.26,NNE,16,7.0,9.0,18,-99.99,,,-99.99,,2013-01-21 18:22:00,
2013-01-21 11:33:00,52.0,9.0,30.26,NE,41,6.0,8.0,17,-99.99,,,-99.99,,2013-01-21 18:33:00,
2013-01-21 11:42:00,53.0,9.0,30.26,NNE,26,6.0,9.0,17,-99.99,,,-99.99,,2013-01-21 18:42:00,
2013-01-21 11:52:00,54.0,9.0,30.25,NNE,32,7.0,9.0,16,-99.99,,,-99.99,,2013-01-21 18:52:00,
2013-01-21 12:03:00,54.0,9.0,30.25,NNE,19,6.0,9.0,16,-99.99,,,-99.99,,2013-01-21 19:03:00,
2013-01-21 12:12:00,55.0,8.0,30.24,NNE,33,8.0,10.0,15,-99.99,,,-99.99,,2013-01-21 19:12:00,
2013-01-21 12:22:00,55.0,8.0,30.24,North,10,7.0,10.0,15,-99.99,,,-99.99,,2013-01-21 19:22:00,
2013-01-21 12:33:00,55.0,9.0,30.23,NNE,30,8.0,10.0,15,-99.99,,,-99.99,,2013-01-21 19:33:00,
2013-01-21 12:43:00,56.0,9.0,30.22,NE,37,8.0,12.0,15,-99.99,,,-99.99,,2013-01-21 19:43:00,
2013-01-21 12:53:00,56.0,9.0,30.22,NNE,22,6.0,8.0,15,-99.99,,,-99.99,,2013-01-21 19:53:00,
2013-01-21 13:03:00,56.0,9.0,30.21,NE,35,7.0,9.0,15,-99.99,,,-99.99,,2013-01-21 20:03:00,
2013-01-21 13:12:00,57.0,10.0,30.21,NE,54,6.0,8.0,15,-99.99,,,-99.99,,2013-01-21 20:12:00,
2013-01-21 13:23:00,57.0,9.0,30.20,NE,44,3.0,6.0,14,-99.99,,,-99.99,,2013-01-21 20:23:00,
2013-01-21 13:33:00,58.0,9.0,30.20,ENE,68,3.0,5.0,14,-99.99,,,-99.99,,2013-01-21 20:33:00,
2013-01-21 13:43:00,58.0,9.0,30.19,North,350,7.0,8.0,14,-99.99,,,-99.99,,2013-01-21 20:43:00,
2013-01-21 13:53:00,59.0,10.0,30.19,NNW,330,3.0,3.0,14,-99.99,,,-99.99,,2013-01-21 20:53:00,
2013-01-21 14:03:00,59.0,8.0,30.18,North,1,3.0,5.0,13,-99.99,,,-99.99,,2013-01-21 21:03:00,
2013-01-21 14:12:00,60.0,9.0,30.18,NE,37,5.0,7.0,13,-99.99,,,-99.99,,2013-01-21 21:12:00,
2013-01-21 14:23:00,60.0,9.0,30.17,East,87,3.0,5.0,13,-99.99,,,-99.99,,2013-01-21 21:23:00,
2013-01-21 14:33:00,60.0,9.0,30.17,South,172,2.0,5.0,13,-99.99,,,-99.99,,2013-01-21 21:33:00,
2013-01-21 14:43:00,61.0,10.0,30.17,North,357,5.0,6.0,13,-99.99,,,-99.99,,2013-01-21 21:43:00,
2013-01-21 14:53:00,61.0,10.0,30.16,NE,42,5.0,8.0,13,-99.99,,,-99.99,,2013-01-21 21:53:00,
2013-01-21 15:03:00,61.0,8.0,30.16,NNE,28,3.0,6.0,12,-99.99,,,-99.99,,2013-01-21 22:03:00,
2013-01-21 15:12:00,62.0,10.0,30.16,ENE,59,3.0,5.0,13,-99.99,,,-99.99,,2013-01-21 22:12:00,
2013-01-21 15:23:00,62.0,9.0,30.15,NE,49,3.0,6.0,12,-99.99,,,-99.99,,2013-01-21 22:23:00,
2013-01-21 15:33:00,62.0,9.0,30.15,East,94,3.0,6.0,12,-99.99,,,-99.99,,2013-01-21 22:33:00,
2013-01-21 15:43:00,62.0,9.0,30.15,ENE,72,3.0,5.0,12,-99.99,,,-99.99,,2013-01-21 22:43:00,
2013-01-21 15:52:00,63.0,9.0,30.15,ENE,76,5.0,6.0,12,-99.99,,,-99.99,,2013-01-21 22:52:00,
2013-01-21 16:03:00,62.0,9.0,30.15,NE,35,2.0,5.0,12,-99.99,,,-99.99,,2013-01-21 23:03:00,
2013-01-21 16:12:00,62.0,9.0,30.15,ESE,114,3.0,6.0,12,-99.99,,,-99.99,,2013-01-21 23:12:00,
2013-01-21 16:22:00,62.0,7.0,30.15,SE,128,2.0,6.0,11,-99.99,,,-99.99,,2013-01-21 23:22:00,
2013-01-21 16:33:00,62.0,9.0,30.14,North,0,0.0,3.0,12,-99.99,,,-99.99,,2013-01-21 23:33:00,
2013-01-21 16:42:00,62.0,9.0,30.14,ESE,113,2.0,3.0,12,-99.99,,,-99.99,,2013-01-21 23:42:00,
2013-01-21 16:53:00,62.0,9.0,30.14,NE,49,2.0,3.0,12,-99.99,,,-99.99,,2013-01-21 23:53:00,
2013-01-21 17:02:00,62.0,9.0,30.14,NNE,12,3.0,5.0,12,-99.99,,,-99.99,,2013-01-22 00:02:00,
2013-01-21 17:12:00,62.0,9.0,30.14,NNE,33,5.0,6.0,12,-99.99,,,-99.99,,2013-01-22 00:12:00,
2013-01-21 17:22:00,61.0,10.0,30.14,North,10,6.0,7.0,13,-99.99,,,-99.99,,2013-01-22 00:22:00,
2013-01-21 17:33:00,60.0,9.0,30.14,North,9,5.0,6.0,13,-99.99,,,-99.99,,2013-01-22 00:33:00,
2013-01-21 17:43:00,60.0,9.0,30.14,North,6,5.0,6.0,13,-99.99,,,-99.99,,2013-01-22 00:43:00,
2013-01-21 17:53:00,60.0,9.0,30.14,North,4,5.0,5.0,13,-99.99,,,-99.99,,2013-01-22 00:53:00,
2013-01-21 18:02:00,59.0,8.0,30.15,North,355,5.0,5.0,13,-99.99,,,-99.99,,2013-01-22 01:02:00,
2013-01-21 18:12:00,58.0,8.0,30.15,North,359,3.0,5.0,13,-99.99,,,-99.99,,2013-01-22 01:12:00,
2013-01-21 18:23:00,57.0,8.0,30.15,North,3,3.0,3.0,14,-99.99,,,-99.99,,2013-01-22 01:23:00,
2013-01-21 18:32:00,56.0,7.0,30.15,North,4,5.0,5.0,14,-99.99,,,-99.99,,2013-01-22 01:32:00,
2013-01-21 18:42:00,56.0,7.0,30.15,North,2,5.0,5.0,14,-99.99,,,-99.99,,2013-01-22 01:42:00,
2013-01-21 18:52:00,54.0,8.0,30.15,NNE,21,3.0,6.0,15,-99.99,,,-99.99,,2013-01-22 01:52:00,
2013-01-21 19:02:00,56.0,7.0,30.16,NNE,13,7.0,8.0,14,-99.99,,,-99.99,,2013-01-22 02:02:00,
2013-01-21 19:12:00,55.0,8.0,30.16,NNE,16,8.0,10.0,15,-99.99,,,-99.99,,2013-01-22 02:12:00,
2013-01-21 19:22:00,54.0,7.0,30.16,NNE,17,8.0,10.0,15,-99.99,,,-99.99,,2013-01-22 02:22:00,
2013-01-21 19:32:00,54.0,7.0,30.16,NNE,20,7.0,9.0,15,-99.99,,,-99.99,,2013-01-22 02:32:00,
2013-01-21 19:43:00,53.0,7.0,30.17,NNE,18,7.0,8.0,15,-99.99,,,-99.99,,2013-01-22 02:43:00,
2013-01-21 19:53:00,53.0,7.0,30.17,NNE,17,8.0,10.0,15,-99.99,,,-99.99,,2013-01-22 02:53:00,
2013-01-21 20:02:00,53.0,6.0,30.17,NNE,23,7.0,8.0,15,-99.99,,,-99.99,,2013-01-22 03:02:00,
2013-01-21 20:12:00,53.0,7.0,30.17,NNE,21,6.0,7.0,15,-99.99,,,-99.99,,2013-01-22 03:12:00,
2013-01-21 20:22:00,52.0,7.0,30.17,NNE,12,6.0,8.0,16,-99.99,,,-99.99,,2013-01-22 03:22:00,
2013-01-21 20:32:00,52.0,7.0,30.17,North,4,3.0,5.0,16,-99.99,,,-99.99,,2013-01-22 03:32:00,
2013-01-21 20:42:00,49.0,8.0,30.17,North,11,3.0,3.0,18,-99.99,,,-99.99,,2013-01-22 03:42:00,
2013-01-21 20:52:00,48.0,8.0,30.17,North,5,2.0,3.0,19,-99.99,,,-99.99,,2013-01-22 03:52:00,
2013-01-21 21:02:00,46.0,10.0,30.18,West,276,3.0,3.0,22,-99.99,,,-99.99,,2013-01-22 04:02:00,
2013-01-21 21:12:00,46.0,9.0,30.18,SSW,207,5.0,6.0,22,-99.99,,,-99.99,,2013-01-22 04:12:00,
2013-01-21 21:22:00,45.0,9.0,30.18,SW,232,3.0,5.0,22,-99.99,,,-99.99,,2013-01-22 04:22:00,
2013-01-21 21:32:00,46.0,9.0,30.18,West,266,5.0,6.0,22,-99.99,,,-99.99,,2013-01-22 04:32:00,
2013-01-21 21:42:00,45.0,9.0,30.19,WNW,297,5.0,6.0,22,-99.99,,,-99.99,,2013-01-22 04:42:00,
2013-01-21 21:52:00,46.0,8.0,30.19,NW,314,3.0,5.0,21,-99.99,,,-99.99,,2013-01-22 04:52:00,
2013-01-21 22:04:00,45.0,9.0,30.19,WNW,287,3.0,3.0,23,-99.99,,,-99.99,,2013-01-22 05:04:00,
2013-01-21 22:12:00,43.0,9.0,30.19,NNW,339,3.0,6.0,24,-99.99,,,-99.99,,2013-01-22 05:12:00,
2013-01-21 22:22:00,44.0,9.0,30.19,North,0,0.0,3.0,24,-99.99,,,-99.99,,2013-01-22 05:22:00,
2013-01-21 22:32:00,44.0,9.0,30.19,West,273,2.0,2.0,24,-99.99,,,-99.99,,2013-01-22 05:32:00,
2013-01-21 22:42:00,43.0,10.0,30.19,West,262,3.0,3.0,26,-99.99,,,-99.99,,2013-01-22 05:42:00,
2013-01-21 22:52:00,45.0,9.0,30.19,WNW,289,3.0,3.0,23,-99.99,,,-99.99,,2013-01-22 05:52:00,
2013-01-21 23:02:00,46.0,8.0,30.20,North,7,9.0,10.0,21,-99.99,,,-99.99,,2013-01-22 06:02:00,
2013-01-21 23:12:00,47.0,8.0,30.20,North,360,8.0,9.0,20,-99.99,,,-99.99,,2013-01-22 06:12:00,
2013-01-21 23:22:00,44.0,9.0,30.20,NNW,347,8.0,9.0,23,-99.99,,,-99.99,,2013-01-22 06:22:00,
2013-01-21 23:32:00,43.0,9.0,30.20,NNW,344,9.0,12.0,24,-99.99,,,-99.99,,2013-01-22 06:32:00,
2013-01-21 23:42:00,44.0,9.0,30.20,NNW,342,10.0,12.0,24,-99.99,,,-99.99,,2013-01-22 06:42:00,
2013-01-21 23:52:00,44.0,9.0,30.21,North,359,6.0,8.0,23,-99.99,,,-99.99,,2013-01-22 06:52:00,